Location: Campillo
(40.8621°N, 4.2488°W)
Time: 13:03:37
(UTC+00:00)

Cosmos 1777 Rocket - Pass Details

Date: 02 October 2021
Orbit: 759 x 775 km, 74.0° (Epoch: 17 October)

Event Time Altitude Azimuth Distance (km) Brightness Sun altitude
Rises 18:56:54 0° 225° (SW) 3,223 7.8 -12.1°
Reaches altitude 10° 18:59:31 10° 236° (SW) 2,298 7.2 -12.6°
Maximum altitude 19:04:08 31° 298° (WNW) 1,318 6.0 -13.5°
Drops below altitude 10° 19:08:45 10° 0° (N) 2,303 6.6 -14.3°
Sets 19:11:23 0° 11° (N) 3,231 7.2 -14.8°
